APSTAR-7

Last updated on Mon Oct 20 2025 00:02:47 GMT+0000 (Coordinated Universal Time)

1 38107U 12013A 25292.13974331 -.00000105 00000+0 00000+0 0 9992 2 38107 0.0030 176.9606 0002866 52.5341 285.1907 1.00271877 49391
UTC large
Height (km)
Speed (km/s)
/
Latitude / Longitude
Inclination (degrees)
Orbital Period (minutes)
Azimuth
Elevation
Range (km)
Doppler Factor

Next 0 passes for location: London (51.5072 / 0.1276)

Sorry there are no passes over London.